| time (UTC) | temp C | wind direction | speed KPH | gust KPH | rain 1hr cm | rain 24hr cm | rain mn cm | humidity % | barometer mb |
| 20260503044325 | 15 | 78 | 0.0 | 0.0 | 0.00 | 0.00 | 0.00 | 72 | 1014.0 |
| 20260503043809 | 15 | 78 | 0.0 | 0.0 | 0.00 | 0.00 | 0.00 | 72 | 1013.9 |
| 20260503043316 | 15 | 78 | 0.0 | 0.0 | 0.00 | 0.00 | 0.00 | 71 | 1013.9 |
| 20260503042805 | 15 | 78 | 0.0 | 0.0 | 0.00 | 0.00 | 0.00 | 73 | 1013.8 |
| 20260503042256 | 15 | 78 | 0.0 | 0.0 | 0.00 | 0.00 | 0.00 | 69 | 1013.7 |
| 20260503041758 | 15 | 78 | 0.0 | 0.0 | 0.00 | 0.00 | 0.00 | 68 | 1013.7 |
| 20260503041311 | 16 | 78 | 0.0 | 0.0 | 0.00 | 0.00 | 0.00 | 69 | 1013.5 |
| 20260503040759 | 16 | 78 | 0.0 | 0.0 | 0.00 | 0.00 | 0.00 | 68 | 1013.5 |
| 20260503040247 | 16 | 78 | 0.0 | 0.0 | 0.00 | 0.00 | 0.00 | 68 | 1013.4 |
| 20260503035759 | 16 | 78 | 0.0 | 0.0 | 0.00 | 0.00 | 0.00 | 68 | 1013.3 |
| 20260503035306 | 16 | 78 | 0.0 | 0.0 | 0.00 | 0.00 | 0.00 | 67 | 1013.3 |
| 20260503034754 | 16 | 78 | 0.0 | 1.6 | 0.00 | 0.00 | 0.00 | 66 | 1013.2 |
| 20260503034302 | 17 | 78 | 0.0 | 0.0 | 0.00 | 0.00 | 0.00 | 63 | 1013.2 |
| 20260503033748 | 17 | 78 | 0.0 | 0.0 | 0.00 | 0.00 | 0.00 | 62 | 1013.1 |
| 20260503033257 | 17 | 78 | 0.0 | 0.0 | 0.00 | 0.00 | 0.00 | 63 | 1013.0 |
| 20260503032806 | 17 | 78 | 0.0 | 0.0 | 0.00 | 0.00 | 0.00 | 61 | 1013.0 |
| 20260503032300 | 17 | 78 | 0.0 | 0.0 | 0.00 | 0.00 | 0.00 | 61 | 1012.9 |
| 20260503031747 | 18 | 78 | 0.0 | 0.0 | 0.00 | 0.00 | 0.00 | 59 | 1012.9 |
| 20260503031257 | 18 | 78 | 0.0 | 1.6 | 0.00 | 0.00 | 0.00 | 60 | 1012.8 |
| 20260503030806 | 18 | 78 | 0.0 | 1.6 | 0.00 | 0.00 | 0.00 | 58 | 1012.8 |
| 20260503030253 | 18 | 175 | 0.0 | 0.0 | 0.00 | 0.00 | 0.00 | 56 | 1012.8 |
| 20260503025801 | 18 | 175 | 0.0 | 0.0 | 0.00 | 0.00 | 0.00 | 56 | 1012.7 |
| 20260503025250 | 18 | 175 | 0.0 | 3.2 | 0.00 | 0.00 | 0.00 | 60 | 1012.7 |
| 20260503024759 | 18 | 157 | 1.6 | 3.2 | 0.00 | 0.00 | 0.00 | 59 | 1012.7 |
| 20260503024305 | 19 | 355 | 0.0 | 6.4 | 0.00 | 0.00 | 0.00 | 57 | 1012.7 |
| 20260503023756 | 19 | 360 | 0.0 | 6.4 | 0.00 | 0.00 | 0.00 | 58 | 1012.7 |
| 20260503023249 | 19 | 225 | 0.0 | 1.6 | 0.00 | 0.00 | 0.00 | 57 | 1012.6 |
| 20260503022758 | 19 | 329 | 0.0 | 1.6 | 0.00 | 0.00 | 0.00 | 56 | 1012.6 |
| 20260503022246 | 19 | 360 | 0.0 | 0.0 | 0.00 | 0.00 | 0.00 | 57 | 1012.6 |
| 20260503021756 | 20 | 360 | 0.0 | 1.6 | 0.00 | 0.00 | 0.00 | 59 | 1012.6 |
| 20260503021304 | 20 | 360 | 0.0 | 6.4 | 0.00 | 0.00 | 0.00 | 59 | 1012.6 |
| 20260503020752 | 20 | 338 | 1.6 | 6.4 | 0.00 | 0.00 | 0.00 | 57 | 1012.6 |
| 20260503020300 | 20 | 165 | 0.0 | 1.6 | 0.00 | 0.00 | 0.00 | 57 | 1012.6 |
| 20260503015828 | 20 | 165 | 0.0 | 1.6 | 0.00 | 0.00 | 0.00 | 58 | 1012.7 |
| 20260503015255 | 20 | 165 | 0.0 | 1.6 | 0.00 | 0.00 | 0.00 | 59 | 1012.7 |
| 20260503014804 | 20 | 165 | 0.0 | 3.2 | 0.00 | 0.00 | 0.00 | 58 | 1012.7 |
| 20260503014315 | 20 | 195 | 1.6 | 1.6 | 0.00 | 0.00 | 0.00 | 59 | 1012.7 |
| 20260503013822 | 20 | 315 | 0.0 | 1.6 | 0.00 | 0.00 | 0.00 | 59 | 1012.7 |
| 20260503013254 | 21 | 262 | 0.0 | 1.6 | 0.00 | 0.00 | 0.00 | 59 | 1012.8 |
| 20260503012803 | 21 | 251 | 0.0 | 1.6 | 0.00 | 0.00 | 0.00 | 57 | 1012.8 |
| 20260503012252 | 21 | 277 | 0.0 | 3.2 | 0.00 | 0.00 | 0.00 | 56 | 1012.9 |
| 20260503011801 | 21 | 320 | 0.0 | 6.4 | 0.00 | 0.00 | 0.00 | 57 | 1012.9 |
| 20260503011308 | 21 | 312 | 1.6 | 6.4 | 0.00 | 0.00 | 0.00 | 57 | 1012.9 |
| 20260503010758 | 21 | 246 | 1.6 | 4.8 | 0.00 | 0.00 | 0.00 | 56 | 1012.9 |
| 20260503010247 | 21 | 260 | 0.0 | 3.2 | 0.00 | 0.00 | 0.00 | 56 | 1012.9 |
| 20260503005756 | 21 | 260 | 0.0 | 6.4 | 0.00 | 0.00 | 0.00 | 55 | 1012.9 |
| 20260503005304 | 21 | 295 | 1.6 | 9.7 | 0.00 | 0.00 | 0.00 | 54 | 1013.0 |
| 20260503004757 | 21 | 246 | 4.8 | 9.7 | 0.00 | 0.00 | 0.00 | 54 | 1012.9 |
| 20260503004305 | 21 | 324 | 1.6 | 6.4 | 0.00 | 0.00 | 0.00 | 54 | 1012.9 |
| 20260503003814 | 22 | 178 | 1.6 | 4.8 | 0.00 | 0.00 | 0.00 | 57 | 1013.0 |
| 20260503003302 | 22 | 49 | 1.6 | 3.2 | 0.00 | 0.00 | 0.00 | 56 | 1012.9 |
| 20260503002750 | 22 | 20 | 1.6 | 3.2 | 0.00 | 0.00 | 0.00 | 56 | 1013.0 |
| 20260503002300 | 22 | 55 | 0.0 | 6.4 | 0.00 | 0.00 | 0.00 | 57 | 1013.0 |
| 20260503001808 | 22 | 269 | 1.6 | 6.4 | 0.00 | 0.00 | 0.00 | 55 | 1012.9 |
| 20260503001255 | 22 | 281 | 1.6 | 6.4 | 0.00 | 0.00 | 0.00 | 57 | 1013.0 |
| 20260503000803 | 22 | 304 | 0.0 | 9.7 | 0.00 | 0.00 | 0.00 | 56 | 1013.0 |
| 20260503000252 | 22 | 325 | 3.2 | 11.3 | 0.00 | 0.00 | 0.00 | 54 | 1013.1 |
| 20260502235801 | 22 | 329 | 3.2 | 11.3 | 0.00 | 0.00 | 0.00 | 53 | 1013.0 |
| 20260502235248 | 22 | 276 | 0.0 | 6.4 | 0.00 | 0.00 | 0.00 | 56 | 1013.1 |
| 20260502234801 | 22 | 198 | 1.6 | 6.4 | 0.00 | 0.00 | 0.00 | 56 | 1013.2 |
| 20260502234309 | 22 | 249 | 1.6 | 6.4 | 0.00 | 0.00 | 0.00 | 57 | 1013.2 |
| 20260502233759 | 22 | 300 | 0.0 | 6.4 | 0.00 | 0.00 | 0.00 | 56 | 1013.3 |
| 20260502233249 | 22 | 275 | 1.6 | 4.8 | 0.00 | 0.00 | 0.00 | 55 | 1013.4 |
| 20260502232756 | 22 | 272 | 3.2 | 8.0 | 0.00 | 0.00 | 0.00 | 55 | 1013.5 |
| 20260502232304 | 23 | 261 | 3.2 | 8.0 | 0.00 | 0.00 | 0.00 | 55 | 1013.5 |
| 20260502231753 | 23 | 277 | 1.6 | 8.0 | 0.00 | 0.00 | 0.00 | 54 | 1013.6 |
| 20260502231302 | 23 | 313 | 3.2 | 11.3 | 0.00 | 0.00 | 0.00 | 53 | 1013.7 |
| 20260502230750 | 23 | 293 | 4.8 | 11.3 | 0.00 | 0.00 | 0.00 | 52 | 1013.8 |
| 20260502230319 | 23 | 320 | 1.6 | 11.3 | 0.00 | 0.00 | 0.00 | 53 | 1013.9 |
| 20260502225806 | 23 | 19 | 1.6 | 8.0 | 0.00 | 0.00 | 0.00 | 53 | 1014.0 |
| 20260502225259 | 23 | 266 | 3.2 | 8.0 | 0.00 | 0.00 | 0.00 | 53 | 1014.1 |
| 20260502224747 | 23 | 316 | 1.6 | 12.9 | 0.00 | 0.00 | 0.00 | 53 | 1014.1 |
| 20260502224258 | 23 | 306 | 3.2 | 12.9 | 0.00 | 0.00 | 0.00 | 53 | 1014.1 |
| 20260502223747 | 23 | 186 | 1.6 | 9.7 | 0.00 | 0.00 | 0.00 | 54 | 1014.1 |
| 20260502223257 | 23 | 221 | 3.2 | 9.7 | 0.00 | 0.00 | 0.00 | 55 | 1014.2 |
| 20260502222747 | 23 | 209 | 3.2 | 9.7 | 0.00 | 0.00 | 0.00 | 55 | 1014.2 |
| 20260502222316 | 23 | 267 | 3.2 | 9.7 | 0.00 | 0.00 | 0.00 | 53 | 1014.3 |
| 20260502221803 | 23 | 179 | 1.6 | 9.7 | 0.00 | 0.00 | 0.00 | 53 | 1014.4 |
| 20260502221254 | 23 | 325 | 1.6 | 4.8 | 0.00 | 0.00 | 0.00 | 52 | 1014.5 |
| 20260502220747 | 23 | 268 | 1.6 | 8.0 | 0.00 | 0.00 | 0.00 | 56 | 1014.5 |
| 20260502220317 | 23 | 47 | 1.6 | 8.0 | 0.00 | 0.00 | 0.00 | 56 | 1014.6 |
| 20260502215804 | 22 | 318 | 4.8 | 8.0 | 0.00 | 0.00 | 0.00 | 52 | 1014.7 |
| 20260502215253 | 22 | 271 | 1.6 | 8.0 | 0.00 | 0.00 | 0.00 | 56 | 1014.7 |
| 20260502214801 | 22 | 258 | 3.2 | 12.9 | 0.00 | 0.00 | 0.00 | 57 | 1014.7 |
| 20260502214249 | 22 | 192 | 6.4 | 12.9 | 0.00 | 0.00 | 0.00 | 55 | 1014.8 |
| 20260502213819 | 22 | 327 | 3.2 | 8.0 | 0.00 | 0.00 | 0.00 | 55 | 1014.8 |
| 20260502213247 | 22 | 278 | 3.2 | 8.0 | 0.00 | 0.00 | 0.00 | 60 | 1014.9 |
| 20260502212756 | 22 | 155 | 3.2 | 8.0 | 0.00 | 0.00 | 0.00 | 58 | 1014.9 |